Tracking 18673 objects as of 26-June-2017
HD Live streaming from Space Station
objects crossing your sky now

GOES 7

Track GOES 7 now!
GOES 7 is classified as:


NORAD ID: 17561
Int'l Code: 1987-022A
Perigee: 35,878.2 km
Apogee: 35,912.6 km
Inclination: 15.1 °
Period: 1,441.3 minutes
Semi major axis: 42266 km
RCS: 10.3409 m2 (large)
Launch date: February 26, 1987
Source: United States (US)
Launch site: AIR FORCE EASTERN TEST RANGE (AFETR)
Your satellite tracking list
Your tracking list is empty





NASA's NSSDC Master Catalog

Two Line Element Set (TLE):
1 17561U 87022A   17176.61460972 -.00000157 +00000-0 +00000-0 0  9990
2 17561 015.1485 005.7292 0004070 301.4144 356.0042 00.99910285094207
Source of the keplerian elements: AFSPC